Regional Weather Roundup
Issued by NWS

Home | Current Version | Previous Version | Text Only | Print | Product List | Glossary On
Versions: 1 2 3 4 5 6 7 8 9 10 11 12 13 14 15 16 17 18 19 20 21 22 23 24 25 26 27 28 29 30 31 32 33 34 35 36 37 38 39 40 41 42 43 44 45 46 47 48 49 50
000
ASUS42 KFFC 171303
RWRGA
WEATHER ROUNDUP FOR GEORGIA
NATIONAL WEATHER SERVICE PEACHTREE CITY GA
900 AM EDT WED SEP 17 2014

NOTE: "FAIR" INDICATES FEW OR NO CLOUDS BELOW 12,000 FEET WITH NO
SIGNIFICANT WEATHER AND/OR OBSTRUCTIONS TO VISIBILITY.

* = USE WITH CAUTION. THE STATIONS MARKED WITH AN ASTERISK MAY NOT
REPORT WEATHER SUCH AS PRECIPITATION, FOG, OR THUNDER AND ARE NOT
QUALITY CONTROLLED BY NWS.

THE REMARK "TC" DENOTES TEMPERATURE READING IN DEGREES CELSIUS.

GAZ001>058-171400-
NORTH GEORGIA

CITY           SKY/WX    TMP DP  RH WIND       PRES   REMARKS
ATLANTA        SUNNY     69  63  81 N10       30.00R
ATHENS         SUNNY     73  66  78 CALM      29.97S
CHAMBLEE       SUNNY     69  63  81 VRB3      30.00R
PEACHTREE CITY SUNNY     70  64  81 N8        30.00R
ROME           SUNNY     67  62  84 CALM      30.00S
WEST ATLANTA   SUNNY     69  63  81 N3        30.00R
GAINESVILLE    SUNNY     69  66  90 W6        30.02R
CARTERSVILLE   SUNNY     67  61  81 N5        30.00F


CITY           SKY/WX    TMP DP  RH WIND       PRES   REMARKS
DALTON*        SUNNY     64  63  94 N6        30.00S
LAWRENCEVILLE* PTSUNNY   68  61  77 CALM      29.99R FOG
MARIETTA       MOSUNNY   69  63  82 VRB3      30.01R
KENNESAW*      SUNNY     64  59  82 NW9       30.01S
$$

GAZ059>098-102>109-171400-
CENTRAL GEORGIA

CITY           SKY/WX    TMP DP  RH WIND       PRES   REMARKS
AUGUSTA-BUSH   MOSUNNY   70  68  93 E6        29.94F
AUGUSTA-DANIEL MOSUNNY   73  69  87 S3        29.96S
COLUMBUS       SUNNY     74  67  78 NE3       29.97R
MACON          SUNNY     75  71  87 N3        29.96S
ROBINS AFB     SUNNY     74  70  89 N5        29.96R


CITY           SKY/WX    TMP DP  RH WIND       PRES   REMARKS
LAGRANGE*      MOSUNNY   73  69  88 N3        29.99S
SYLVANIA*      SUNNY     72  72  99 CALM      29.94S
MILLEDGEVILLE* SUNNY     72  72 100 CALM      29.96S
$$

GAZ099>101-110>166-171400-
SOUTH GEORGIA

CITY           SKY/WX    TMP DP  RH WIND       PRES   REMARKS
SAVANNAH       MOSUNNY   75  70  84 CALM      29.93S
VALDOSTA       MOSUNNY   73  71  93 CALM      29.96R
ALMA           SUNNY     74  70  87 CALM      29.95R
ST SIMONS      MOSUNNY   75  70  84 NW7       29.93R
FT STEWART     SUNNY     74  70  87 N3        29.93R
ALBANY         SUNNY     74  71  91 N3        29.97S
HUNTER AFB     SUNNY     75  71  87 N3        29.91S
MOODY AFB      MOSUNNY   73  70  90 CALM      29.95S
BRUNSWICK      MOSUNNY   73  70  88 CALM      29.95R


CITY           SKY/WX    TMP DP  RH WIND       PRES   REMARKS
BAINBRIDGE*    CLOUDY    73  72  94 CALM      29.96S FOG
MOULTRIE*      SUNNY     72  72 100 CALM      29.96S
VIDALIA*       SUNNY     72  72 100 CALM      29.95S
WAYCROSS*      PTSUNNY   76  74  96 W3        29.94F
DOUGLAS*       SUNNY     75  72  88 N3        29.97R
$$


USA.gov is the U.S. government's official web portal to all federal, state and local government web resources and services.